When you browse on this site, cookies collect data to enhance your experience and personalize the content and advertising you see.
Visit our Privacy Policy to learn more. By continuing to use the site, you agree to this use of cookies and data.
  • In United Kingdom
  • List of Countries
  • For 7 days
  • Water Temperature
  • Weather Map
  • Weather Widgets
  • user-avatar
    Login

    Hourly Weather Worcester

    Today, 18 September, Wednesday

    Time Temperature Precipitation Wind Pressure Humidity
    00:00 +9°C° 0 mm 1 mps 767 mmHg 90%
    01:00 +9°C° 0 mm 1 mps 767 mmHg 90%
    02:00 +9°C° 0 mm 1 mps 767 mmHg 90%
    03:00 +7°C° 0 mm 0 mps 767 mmHg 90%
    04:00 +7°C° 0 mm 0 mps 767 mmHg 90%
    05:00 +7°C° 0 mm 0 mps 767 mmHg 89%
    06:00 +7°C° 0 mm 0 mps 768 mmHg 89%
    07:00 +9°C° 0 mm 0 mps 768 mmHg 83%
    08:00 +11°C° 0 mm 0 mps 768 mmHg 77%
    09:00 +13°C° 0 mm 0 mps 768 mmHg 71%
    10:00 +14°C° 0 mm 0 mps 768 mmHg 66%
    11:00 +15°C° 0 mm 0 mps 768 mmHg 61%
    12:00 +17°C° 0 mm 0 mps 768 mmHg 57%
    13:00 +19°C° 0 mm 1 mps 768 mmHg 56%
    14:00 +20°C° 0 mm 1 mps 768 mmHg 55%
    15:00 +20°C° 0 mm 1 mps 767 mmHg 54%
    16:00 +19°C° 0 mm 1 mps 767 mmHg 61%
    17:00 +18°C° 0 mm 1 mps 767 mmHg 67%
    18:00 +15°C° 0 mm 1 mps 767 mmHg 73%
    19:00 +14°C° 0 mm 1 mps 767 mmHg 76%
    20:00 +14°C° 0 mm 1 mps 768 mmHg 80%
    21:00 +13°C° 0 mm 1 mps 768 mmHg 83%
    22:00 +12°C° 0 mm 1 mps 768 mmHg 85%
    23:00 +12°C° 0 mm 1 mps 768 mmHg 86%

    Tomorrow, 19 September, Thursday

    Time Temperature Precipitation Wind Pressure Humidity
    00:00 +11°C° 0 mm 1 mps 768 mmHg 87%
    01:00 +11°C° 0 mm 1 mps 768 mmHg 88%
    02:00 +11°C° 0 mm 1 mps 768 mmHg 89%
    03:00 +11°C° 0 mm 1 mps 768 mmHg 91%
    04:00 +10°C° 0 mm 1 mps 768 mmHg 91%
    05:00 +10°C° 0 mm 1 mps 768 mmHg 91%
    06:00 +10°C° 0 mm 1 mps 768 mmHg 91%
    07:00 +12°C° 0 mm 1 mps 768 mmHg 86%
    08:00 +14°C° 0 mm 1 mps 768 mmHg 80%
    09:00 +15°C° 0 mm 1 mps 769 mmHg 75%
    10:00 +18°C° 0 mm 1 mps 769 mmHg 70%
    11:00 +20°C° 0 mm 1 mps 768 mmHg 66%
    12:00 +19°C° 0 mm 0 mps 768 mmHg 61%
    13:00 +21°C° 0 mm 1 mps 768 mmHg 60%
    14:00 +22°C° 0 mm 1 mps 768 mmHg 59%
    15:00 +22°C° 0 mm 1 mps 767 mmHg 57%
    16:00 +21°C° 0 mm 1 mps 767 mmHg 63%
    17:00 +19°C° 0 mm 1 mps 767 mmHg 68%
    18:00 +16°C° 0 mm 0 mps 767 mmHg 73%
    19:00 +15°C° 0 mm 0 mps 767 mmHg 76%
    20:00 +14°C° 0 mm 0 mps 767 mmHg 79%
    21:00 +14°C° 0 mm 0 mps 767 mmHg 81%
    22:00 +14°C° 0 mm 1 mps 767 mmHg 83%
    23:00 +14°C° 0 mm 1 mps 767 mmHg 84%

    Day after tomorrow, 20 September, Friday

    Time Temperature Precipitation Wind Pressure Humidity
    00:00 +13°C° 0 mm 1 mps 767 mmHg 85%
    01:00 +13°C° 0 mm 1 mps 766 mmHg 86%
    02:00 +12°C° 0 mm 1 mps 766 mmHg 87%
    03:00 +12°C° 0 mm 1 mps 766 mmHg 88%
    04:00 +11°C° 0 mm 1 mps 766 mmHg 89%
    05:00 +11°C° 0 mm 1 mps 765 mmHg 90%
    06:00 +11°C° 0 mm 1 mps 765 mmHg 91%
    07:00 +12°C° 0 mm 2 mps 765 mmHg 86%
    08:00 +13°C° 0 mm 3 mps 764 mmHg 81%
    09:00 +16°C° 0 mm 3 mps 764 mmHg 76%
    10:00 +17°C° 0 mm 4 mps 764 mmHg 71%
    11:00 +17°C° 0 mm 5 mps 763 mmHg 66%
    12:00 +20°C° 0 mm 5 mps 763 mmHg 60%
    13:00 +20°C° 0 mm 6 mps 762 mmHg 58%
    14:00 +20°C° 0 mm 6 mps 761 mmHg 56%
    15:00 +21°C° 0 mm 6 mps 760 mmHg 54%
    16:00 +19°C° 0 mm 6 mps 760 mmHg 57%
    17:00 +17°C° 0 mm 5 mps 759 mmHg 60%
    18:00 +15°C° 0 mm 5 mps 759 mmHg 63%
    19:00 +14°C° 0 mm 5 mps 759 mmHg 65%
    20:00 +13°C° 0 mm 5 mps 758 mmHg 67%
    21:00 +12°C° 0 mm 5 mps 758 mmHg 69%
    22:00 +12°C° 0 mm 5 mps 758 mmHg 70%
    23:00 +12°C° 0 mm 5 mps 757 mmHg 71%

    21 September, Saturday

    Time Temperature Precipitation Wind Pressure Humidity
    00:00 +12°C° 0 mm 5 mps 756 mmHg 71%
    01:00 +12°C° 0 mm 4 mps 756 mmHg 70%
    02:00 +11°C° 0 mm 4 mps 755 mmHg 69%
    03:00 +11°C° 0 mm 4 mps 755 mmHg 69%
    04:00 +11°C° 0 mm 4 mps 755 mmHg 68%
    05:00 +11°C° 0 mm 3 mps 754 mmHg 68%
    06:00 +10°C° 0 mm 3 mps 753 mmHg 68%
    07:00 +12°C° 0 mm 4 mps 753 mmHg 66%
    08:00 +13°C° 0 mm 4 mps 753 mmHg 65%
    09:00 +15°C° 0 mm 4 mps 753 mmHg 63%
    10:00 +17°C° 0 mm 5 mps 753 mmHg 61%
    11:00 +19°C° 0 mm 5 mps 752 mmHg 60%
    12:00 +21°C° 0 mm 5 mps 752 mmHg 58%
    13:00 +21°C° 0.1 mm 5 mps 752 mmHg 60%
    14:00 +22°C° 0.1 mm 5 mps 751 mmHg 62%
    15:00 +22°C° 0.1 mm 4 mps 750 mmHg 64%
    16:00 +21°C° 0.2 mm 4 mps 750 mmHg 70%
    17:00 +20°C° 0.2 mm 4 mps 750 mmHg 75%
    18:00 +19°C° 0.2 mm 3 mps 749 mmHg 81%
    19:00 +19°C° 0.3 mm 3 mps 749 mmHg 82%
    20:00 +18°C° 0.3 mm 3 mps 749 mmHg 84%
    21:00 +17°C° 0.3 mm 3 mps 749 mmHg 85%
    22:00 +17°C° 0.5 mm 3 mps 748 mmHg 87%
    23:00 +17°C° 0.5 mm 2 mps 748 mmHg 90%

    22 September, Sunday

    Time Temperature Precipitation Wind Pressure Humidity
    00:00 +17°C° 0.5 mm 2 mps 747 mmHg 92%
    01:00 +17°C° 0 mm 2 mps 747 mmHg 93%
    02:00 +17°C° 0 mm 2 mps 747 mmHg 95%
    03:00 +17°C° 0 mm 2 mps 746 mmHg 96%
    04:00 +17°C° 0.1 mm 2 mps 746 mmHg 96%
    05:00 +17°C° 0.1 mm 3 mps 746 mmHg 96%
    06:00 +17°C° 0.1 mm 3 mps 746 mmHg 96%
    07:00 +17°C° 0.2 mm 3 mps 746 mmHg 94%
    08:00 +17°C° 0.2 mm 4 mps 747 mmHg 92%
    09:00 +17°C° 0.2 mm 4 mps 747 mmHg 91%
    10:00 +17°C° 0.4 mm 5 mps 747 mmHg 84%
    11:00 +19°C° 0.4 mm 6 mps 747 mmHg 76%
    12:00 +20°C° 0.4 mm 6 mps 748 mmHg 69%
    13:00 +20°C° 0.1 mm 6 mps 748 mmHg 68%
    14:00 +20°C° 0.1 mm 6 mps 748 mmHg 67%
    15:00 +20°C° 0.1 mm 6 mps 748 mmHg 66%
    16:00 +17°C° 0.2 mm 5 mps 748 mmHg 72%
    17:00 +17°C° 0.2 mm 4 mps 748 mmHg 78%
    18:00 +14°C° 0.2 mm 3 mps 748 mmHg 84%
    19:00 +14°C° 0 mm 3 mps 749 mmHg 86%
    20:00 +14°C° 0 mm 2 mps 749 mmHg 88%
    21:00 +13°C° 0 mm 2 mps 750 mmHg 90%
    22:00 +13°C° 0 mm 2 mps 750 mmHg 91%
    23:00 +12°C° 0 mm 2 mps 750 mmHg 91%

    23 September, Monday

    Time Temperature Precipitation Wind Pressure Humidity
    00:00 +12°C° 0 mm 2 mps 751 mmHg 91%
    01:00 +12°C° 0 mm 2 mps 751 mmHg 92%
    02:00 +10°C° 0 mm 2 mps 752 mmHg 92%
    03:00 +10°C° 0 mm 3 mps 752 mmHg 93%
    04:00 +10°C° 0 mm 3 mps 752 mmHg 93%
    05:00 +10°C° 0 mm 3 mps 753 mmHg 92%
    06:00 +9°C° 0 mm 3 mps 753 mmHg 92%
    07:00 +11°C° 0 mm 3 mps 753 mmHg 87%
    08:00 +12°C° 0 mm 4 mps 754 mmHg 82%
    09:00 +14°C° 0 mm 4 mps 754 mmHg 77%
    10:00 +15°C° 0.1 mm 5 mps 754 mmHg 73%
    11:00 +16°C° 0.1 mm 5 mps 754 mmHg 70%
    12:00 +17°C° 0.1 mm 6 mps 754 mmHg 66%
    13:00 +17°C° 0 mm 5 mps 754 mmHg 68%
    14:00 +16°C° 0 mm 5 mps 753 mmHg 70%
    15:00 +16°C° 0 mm 5 mps 753 mmHg 71%
    16:00 +15°C° 0.5 mm 5 mps 752 mmHg 78%
    17:00 +14°C° 0.5 mm 5 mps 752 mmHg 85%
    18:00 +13°C° 0.5 mm 5 mps 751 mmHg 92%
    19:00 +13°C° 0.6 mm 5 mps 751 mmHg 93%
    20:00 +14°C° 0.6 mm 5 mps 751 mmHg 94%
    21:00 +14°C° 0.6 mm 5 mps 751 mmHg 95%
    22:00 +15°C° 0.5 mm 5 mps 751 mmHg 95%
    23:00 +15°C° 0.5 mm 5 mps 751 mmHg 96%
    Show more